SL-16 DEB, 22804

Orbit data source: Space-Track

SL-16 DEB, 22804 is space debris in LEO originally from a launch on Thu, 16 Sep 1993 UTC launched from the Tyuratam Missile And Space Complex (TTMTR). Debris objects in space refer to the collection of defunct objects orbiting the Earth. Examples of debris include non-operational satellites, rocket bodies, and fragments generated from explosions, collisions, or faulty payload assembly.

Loading next visibility...
Identifier
22804, 1993-059C
Orbit
LEO
Country
Flag of CISCIS
Related business
Manufacturer
Yuzhnoe
Mission
Spacecraft
Bus & Motor
SEP MOTOR COVER, Unknown motor
Mass
~0 kg wet, ~1 kg dry
Launch date (UTC)
1993-09-16 (33 years ago)
Launch vehicle
Unknown
Launch site
Tyuratam Missile And Space Complex (TTMTR)
Object type
Payload
Rocket body
Debris
Shape & HBR
Unknown shape, 0.1 m
Radar Cross Section
Medium (>0.1 m² and <1 m²)

Expand to show TLE details & history
Last TLE update: 2 days ago

TLE from 2 days ago
0 SL-16 DEB
1 22804U 93059C   26171.41700368  .00000042  00000-0  79372-4 0  9996
2 22804  70.9718 178.4734 0207667 135.8243 341.5008 13.72073866639224
Epoch: 2026-06-20T10:00Z
TLE epoch observation values (Epoch: 2026-06-20T10:00:29.117Z)
Latitude
57.85377°
Longitude
-93.36543°
Altitude
856.488 km
Speed
7.503 km/s
True Right ascension
21h 41m 33s
True Declination
57° 42' 03"
Sunlit
Object was in daylight at epoch
Visualization orbit readout
Latitude
Unknown
Longitude
Unknown
Altitude
Unknown
Speed
Unknown
Apparent Right ascension
Unknown
Apparent Declination
Unknown
Sunlit
N/A
Visualization observer readout
Local Sidereal Time
00:50:12
Azimuth
Unknown
Elevation
Unknown
Doppler factor
Unknown
Orbital elements
Apogee altitude
1,143.118 km
Perigee altitude
837.09 km
Semi-major axis
7,368.241 km
Eccentricity
0.02077
Inclination
70.9718°
RAAN
178.4734°
Arg. of periapsis
135.8243°
True anomaly
340.72673°
Mean anomaly
341.5008°
Eccentric anomaly
341.1157°
Mean motion
3.43161 °/min
Orbital period
104.91 mins
BSTAR
0.000079372
Loading maneuver chart data...
Computing Atmospheric mass density...
Loading historical data...
Loading historical data...
Loading historical data...
Loading historical data...
Loading historical data...
Loading historical data...
Loading historical data...

Documentation

Showing up to 5 results
|